Year,Month,Day,Hour,Minute,Value (Times are PST for temperature in C)
2013,07,18,00,00,16.20
2013,07,18,00,01,16.20
2013,07,18,00,02,16.30
2013,07,18,00,03,16.30
2013,07,18,00,04,16.30
2013,07,18,00,05,16.30
2013,07,18,00,06,16.30
2013,07,18,00,07,16.30
2013,07,18,00,08,16.30
2013,07,18,00,09,16.30
2013,07,18,00,10,16.30
2013,07,18,00,11,16.30
2013,07,18,00,12,16.30
2013,07,18,00,13,16.30
2013,07,18,00,14,16.30
2013,07,18,00,15,16.30
2013,07,18,00,16,16.40
2013,07,18,00,17,16.40
2013,07,18,00,18,16.40
2013,07,18,00,19,16.40
2013,07,18,00,20,16.40
2013,07,18,00,21,16.40
2013,07,18,00,22,16.40
2013,07,18,00,23,16.40
2013,07,18,00,24,16.40
2013,07,18,00,25,16.40
2013,07,18,00,26,16.40
2013,07,18,00,27,16.40
2013,07,18,00,28,16.40
2013,07,18,00,29,16.40
2013,07,18,00,30,16.40
2013,07,18,00,31,16.40
2013,07,18,00,32,16.40
2013,07,18,00,33,16.40
2013,07,18,00,34,16.40
2013,07,18,00,35,16.50
2013,07,18,00,36,16.50
2013,07,18,00,37,16.50
2013,07,18,00,38,16.60
2013,07,18,00,39,16.60
2013,07,18,00,40,16.60
2013,07,18,00,41,16.60
2013,07,18,00,42,16.60
2013,07,18,00,43,16.60
2013,07,18,00,44,16.60
2013,07,18,00,45,16.60
2013,07,18,00,46,16.60
2013,07,18,00,47,16.60
2013,07,18,00,48,16.60
2013,07,18,00,49,16.60
2013,07,18,00,50,16.60
2013,07,18,00,51,16.60
2013,07,18,00,52,16.60
2013,07,18,00,53,16.60
2013,07,18,00,54,16.50
2013,07,18,00,55,16.50
2013,07,18,00,56,16.50
2013,07,18,00,57,16.50
2013,07,18,00,58,16.50
2013,07,18,00,59,16.50
2013,07,18,01,00,16.50
2013,07,18,01,01,16.50
2013,07,18,01,02,16.50
2013,07,18,01,03,16.40
2013,07,18,01,04,16.40
2013,07,18,01,05,16.40
2013,07,18,01,06,16.40
2013,07,18,01,07,16.40
2013,07,18,01,08,16.40
2013,07,18,01,09,16.40
2013,07,18,01,10,16.40
2013,07,18,01,11,16.40
2013,07,18,01,12,16.40
2013,07,18,01,13,16.30
2013,07,18,01,14,16.30
2013,07,18,01,15,16.40
2013,07,18,01,16,16.30
2013,07,18,01,17,16.30
2013,07,18,01,18,16.30
2013,07,18,01,19,16.30
2013,07,18,01,20,16.30
2013,07,18,01,21,16.30
2013,07,18,01,22,16.30
2013,07,18,01,23,16.30
2013,07,18,01,24,16.30
2013,07,18,01,25,16.30
2013,07,18,01,26,16.30
2013,07,18,01,27,16.30
2013,07,18,01,28,16.20
2013,07,18,01,29,16.20
2013,07,18,01,30,16.20
2013,07,18,01,31,16.20
2013,07,18,01,32,16.20
2013,07,18,01,33,16.20
2013,07,18,01,34,16.20
2013,07,18,01,35,16.20
2013,07,18,01,36,16.10
2013,07,18,01,37,16.10
2013,07,18,01,38,16.10
2013,07,18,01,39,16.10
2013,07,18,01,40,16.10
2013,07,18,01,41,16.10
2013,07,18,01,42,16.10
2013,07,18,01,43,16.10
2013,07,18,01,44,16.10
2013,07,18,01,45,16.10
2013,07,18,01,46,16.10
2013,07,18,01,47,16.10
2013,07,18,01,48,16.10
2013,07,18,01,49,16.10
2013,07,18,01,50,16.10
2013,07,18,01,51,16.10
2013,07,18,01,52,16.10
2013,07,18,01,53,16.10
2013,07,18,01,54,16.10
2013,07,18,01,55,16.10
2013,07,18,01,56,16.10
2013,07,18,01,57,16.10
2013,07,18,01,58,16.00
2013,07,18,01,59,16.00
2013,07,18,02,00,16.00
2013,07,18,02,01,16.00
2013,07,18,02,02,16.00
2013,07,18,02,03,16.00
2013,07,18,02,04,16.00
2013,07,18,02,05,16.00
2013,07,18,02,06,16.00
2013,07,18,02,07,15.90
2013,07,18,02,08,16.00
2013,07,18,02,09,15.90
2013,07,18,02,10,15.90
2013,07,18,02,11,15.90
2013,07,18,02,12,15.90
2013,07,18,02,13,15.90
2013,07,18,02,14,15.90
2013,07,18,02,15,15.80
2013,07,18,02,16,15.80
2013,07,18,02,17,15.80
2013,07,18,02,18,15.80
2013,07,18,02,19,15.80
2013,07,18,02,20,15.80
2013,07,18,02,21,15.80
2013,07,18,02,22,15.80
2013,07,18,02,23,15.80
2013,07,18,02,24,15.80
2013,07,18,02,25,15.80
2013,07,18,02,26,15.80
2013,07,18,02,27,15.70
2013,07,18,02,28,15.70
2013,07,18,02,29,15.70
2013,07,18,02,30,15.70
2013,07,18,02,31,15.70
2013,07,18,02,32,15.70
2013,07,18,02,33,15.70
2013,07,18,02,34,15.70
2013,07,18,02,35,15.70
2013,07,18,02,36,15.70
2013,07,18,02,37,15.70
2013,07,18,02,38,15.70
2013,07,18,02,39,15.70
2013,07,18,02,40,15.70
2013,07,18,02,41,15.70
2013,07,18,02,42,15.70
2013,07,18,02,43,15.70
2013,07,18,02,44,15.70
2013,07,18,02,45,15.70
2013,07,18,02,46,15.70
2013,07,18,02,47,15.70
2013,07,18,02,48,15.70
2013,07,18,02,49,15.70
2013,07,18,02,50,15.70
2013,07,18,02,51,15.70
2013,07,18,02,52,15.70
2013,07,18,02,53,15.70
2013,07,18,02,54,15.70
2013,07,18,02,55,15.70
2013,07,18,02,56,15.70
2013,07,18,02,57,15.70
2013,07,18,02,58,15.70
2013,07,18,02,59,15.70
2013,07,18,03,00,15.70
2013,07,18,03,01,15.70
2013,07,18,03,02,15.70
2013,07,18,03,03,15.70
2013,07,18,03,04,15.70
2013,07,18,03,05,15.70
2013,07,18,03,06,15.70
2013,07,18,03,07,15.70
2013,07,18,03,08,15.70
2013,07,18,03,09,15.70
2013,07,18,03,10,15.70
2013,07,18,03,11,15.60
2013,07,18,03,12,15.60
2013,07,18,03,13,15.60
2013,07,18,03,14,15.60
2013,07,18,03,15,15.60
2013,07,18,03,16,15.60
2013,07,18,03,17,15.60
2013,07,18,03,18,15.50
2013,07,18,03,19,15.50
2013,07,18,03,20,15.50
2013,07,18,03,21,15.50
2013,07,18,03,22,15.40
2013,07,18,03,23,15.40
2013,07,18,03,24,15.40
2013,07,18,03,25,15.40
2013,07,18,03,26,15.40
2013,07,18,03,27,15.40
2013,07,18,03,28,15.40
2013,07,18,03,29,15.40
2013,07,18,03,30,15.40
2013,07,18,03,31,15.40
2013,07,18,03,32,15.40
2013,07,18,03,33,15.40
2013,07,18,03,34,15.40
2013,07,18,03,35,15.40
2013,07,18,03,36,15.40
2013,07,18,03,37,15.50
2013,07,18,03,38,15.50
2013,07,18,03,39,15.50
2013,07,18,03,40,15.50
2013,07,18,03,41,15.50
2013,07,18,03,42,15.50
2013,07,18,03,43,15.50
2013,07,18,03,44,15.40
2013,07,18,03,45,15.40
2013,07,18,03,46,15.40
2013,07,18,03,47,15.40
2013,07,18,03,48,15.40
2013,07,18,03,49,15.40
2013,07,18,03,50,15.40
2013,07,18,03,51,15.40
2013,07,18,03,52,15.40
2013,07,18,03,53,15.40
2013,07,18,03,54,15.40
2013,07,18,03,55,15.40
2013,07,18,03,56,15.40
2013,07,18,03,57,15.40
2013,07,18,03,58,15.30
2013,07,18,03,59,15.30
2013,07,18,04,00,15.30
2013,07,18,04,01,15.30
2013,07,18,04,02,15.30
2013,07,18,04,03,15.30
2013,07,18,04,04,15.30
2013,07,18,04,05,15.20
2013,07,18,04,06,15.20
2013,07,18,04,07,15.20
2013,07,18,04,08,15.20
2013,07,18,04,09,15.20
2013,07,18,04,10,15.20
2013,07,18,04,11,15.20
2013,07,18,04,12,15.20
2013,07,18,04,13,15.20
2013,07,18,04,14,15.20
2013,07,18,04,15,15.10
2013,07,18,04,16,15.10
2013,07,18,04,17,15.10
2013,07,18,04,18,15.10
2013,07,18,04,19,15.10
2013,07,18,04,20,15.10
2013,07,18,04,21,15.00
2013,07,18,04,22,15.00
2013,07,18,04,23,15.00
2013,07,18,04,24,15.00
2013,07,18,04,25,15.00
2013,07,18,04,26,15.00
2013,07,18,04,27,15.00
2013,07,18,04,28,15.00
2013,07,18,04,29,15.00
2013,07,18,04,30,15.00
2013,07,18,04,31,15.00
2013,07,18,04,32,14.90
2013,07,18,04,33,14.90
2013,07,18,04,34,14.90
2013,07,18,04,35,14.90
2013,07,18,04,36,14.90
2013,07,18,04,37,14.90
2013,07,18,04,38,14.90
2013,07,18,04,39,14.90
2013,07,18,04,40,14.90
2013,07,18,04,41,14.90
2013,07,18,04,42,14.90
2013,07,18,04,43,14.90
2013,07,18,04,44,14.90
2013,07,18,04,45,14.90
2013,07,18,04,46,14.80
2013,07,18,04,47,14.80
2013,07,18,04,48,14.80
2013,07,18,04,49,14.80
2013,07,18,04,50,14.80
2013,07,18,04,51,14.80
2013,07,18,04,52,14.80
2013,07,18,04,53,14.80
2013,07,18,04,54,14.80
2013,07,18,04,55,14.80
2013,07,18,04,56,14.80
2013,07,18,04,57,14.80
2013,07,18,04,58,14.80
2013,07,18,04,59,14.80
2013,07,18,05,00,14.80
2013,07,18,05,01,14.80
2013,07,18,05,02,14.80
2013,07,18,05,03,14.80
2013,07,18,05,04,14.80
2013,07,18,05,05,14.70
2013,07,18,05,06,14.70
2013,07,18,05,07,14.70
2013,07,18,05,08,14.70
2013,07,18,05,09,14.70
2013,07,18,05,10,14.60
2013,07,18,05,11,14.60
2013,07,18,05,12,14.60
2013,07,18,05,13,14.60
2013,07,18,05,14,14.50
2013,07,18,05,15,14.50
2013,07,18,05,16,14.50
2013,07,18,05,17,14.40
2013,07,18,05,18,14.40
2013,07,18,05,19,14.40
2013,07,18,05,20,14.40
2013,07,18,05,21,14.30
2013,07,18,05,22,14.30
2013,07,18,05,23,14.30
2013,07,18,05,24,14.30
2013,07,18,05,25,14.30
2013,07,18,05,26,14.30
2013,07,18,05,27,14.20
2013,07,18,05,28,14.20
2013,07,18,05,29,14.20
2013,07,18,05,30,14.20
2013,07,18,05,31,14.10
2013,07,18,05,32,14.10
2013,07,18,05,33,14.10
2013,07,18,05,34,14.10
2013,07,18,05,35,14.00
2013,07,18,05,36,14.00
2013,07,18,05,37,14.00
2013,07,18,05,38,13.90
2013,07,18,05,39,13.90
2013,07,18,05,40,13.90
2013,07,18,05,41,13.90
2013,07,18,05,42,13.90
2013,07,18,05,43,13.80
2013,07,18,05,44,13.80
2013,07,18,05,45,13.80
2013,07,18,05,46,13.80
2013,07,18,05,47,13.80
2013,07,18,05,48,13.80
2013,07,18,05,49,13.80
2013,07,18,05,50,13.80
2013,07,18,05,51,13.80
2013,07,18,05,52,13.80
2013,07,18,05,53,13.80
2013,07,18,05,54,13.80
2013,07,18,05,55,13.80
2013,07,18,05,56,13.80
2013,07,18,05,57,13.80
2013,07,18,05,58,13.80
2013,07,18,05,59,13.80
2013,07,18,06,00,13.80
2013,07,18,06,01,13.80
2013,07,18,06,02,13.80
2013,07,18,06,03,13.80
2013,07,18,06,04,13.80
2013,07,18,06,05,13.80
2013,07,18,06,06,13.90
2013,07,18,06,07,13.90
2013,07,18,06,08,13.90
2013,07,18,06,09,13.90
2013,07,18,06,10,14.00
2013,07,18,06,11,14.00
2013,07,18,06,12,14.10
2013,07,18,06,13,14.10
2013,07,18,06,14,14.10
2013,07,18,06,15,14.10
2013,07,18,06,16,14.10
2013,07,18,06,17,14.20
2013,07,18,06,18,14.20
2013,07,18,06,19,14.20
2013,07,18,06,20,14.30
2013,07,18,06,21,14.30
2013,07,18,06,22,14.40
2013,07,18,06,23,14.40
2013,07,18,06,24,14.50
2013,07,18,06,25,14.50
2013,07,18,06,26,14.60
2013,07,18,06,27,14.60
2013,07,18,06,28,14.70
2013,07,18,06,29,14.70
2013,07,18,06,30,14.70
2013,07,18,06,31,14.70
2013,07,18,06,32,14.80
2013,07,18,06,33,14.80
2013,07,18,06,34,14.80
2013,07,18,06,35,14.80
2013,07,18,06,36,14.90
2013,07,18,06,37,14.90
2013,07,18,06,38,14.90
2013,07,18,06,39,14.90
2013,07,18,06,40,14.90
2013,07,18,06,41,14.90
2013,07,18,06,42,14.90
2013,07,18,06,43,14.90
2013,07,18,06,44,15.00
2013,07,18,06,45,15.00
2013,07,18,06,46,15.00
2013,07,18,06,47,15.00
2013,07,18,06,48,15.00
2013,07,18,06,49,15.00
2013,07,18,06,50,15.10
2013,07,18,06,51,15.10
2013,07,18,06,52,15.10
2013,07,18,06,53,15.10
2013,07,18,06,54,15.10
2013,07,18,06,55,15.10
2013,07,18,06,56,15.20
2013,07,18,06,57,15.20
2013,07,18,06,58,15.20
2013,07,18,06,59,15.20
2013,07,18,07,00,15.20
2013,07,18,07,01,15.20
2013,07,18,07,02,15.20
2013,07,18,07,03,15.30
2013,07,18,07,04,15.30
2013,07,18,07,05,15.30
2013,07,18,07,06,15.30
2013,07,18,07,07,15.30
2013,07,18,07,08,15.30
2013,07,18,07,09,15.40
2013,07,18,07,10,15.40
2013,07,18,07,11,15.40
2013,07,18,07,12,15.50
2013,07,18,07,13,15.50
2013,07,18,07,14,15.50
2013,07,18,07,15,15.60
2013,07,18,07,16,15.60
2013,07,18,07,17,15.60
2013,07,18,07,18,15.60
2013,07,18,07,19,15.70
2013,07,18,07,20,15.70
2013,07,18,07,21,15.70
2013,07,18,07,22,15.70
2013,07,18,07,23,15.70
2013,07,18,07,24,15.80
2013,07,18,07,25,15.80
2013,07,18,07,26,15.80
2013,07,18,07,27,15.80
2013,07,18,07,28,15.80
2013,07,18,07,29,15.80
2013,07,18,07,30,15.80
2013,07,18,07,31,15.90
2013,07,18,07,32,15.90
2013,07,18,07,33,15.90
2013,07,18,07,34,16.00
2013,07,18,07,35,16.00
2013,07,18,07,36,16.00
2013,07,18,07,37,16.10
2013,07,18,07,38,16.10
2013,07,18,07,39,16.10
2013,07,18,07,40,16.20
2013,07,18,07,41,16.20
2013,07,18,07,42,16.30
2013,07,18,07,43,16.30
2013,07,18,07,44,16.30
2013,07,18,07,45,16.30
2013,07,18,07,46,16.30
2013,07,18,07,47,16.30
2013,07,18,07,48,16.40
2013,07,18,07,49,16.40
2013,07,18,07,50,16.50
2013,07,18,07,51,16.50
2013,07,18,07,52,16.60
2013,07,18,07,53,16.60
2013,07,18,07,54,16.70
2013,07,18,07,55,16.70
2013,07,18,07,56,16.80
2013,07,18,07,57,16.90
2013,07,18,07,58,17.00
2013,07,18,07,59,17.00
2013,07,18,08,00,17.00
2013,07,18,08,01,17.00
2013,07,18,08,02,17.00
2013,07,18,08,03,17.10
2013,07,18,08,04,17.20
2013,07,18,08,05,17.20
2013,07,18,08,06,17.20
2013,07,18,08,07,17.30
2013,07,18,08,08,17.30
2013,07,18,08,09,17.30
2013,07,18,08,10,17.40
2013,07,18,08,11,17.40
2013,07,18,08,12,17.50
2013,07,18,08,13,17.60
2013,07,18,08,14,17.70
2013,07,18,08,15,17.70
2013,07,18,08,16,17.80
2013,07,18,08,17,17.80
2013,07,18,08,18,17.90
2013,07,18,08,19,17.90
2013,07,18,08,20,18.00
2013,07,18,08,21,18.00
2013,07,18,08,22,18.10
2013,07,18,08,23,18.10
2013,07,18,08,24,18.10
2013,07,18,08,25,18.10
2013,07,18,08,26,18.20
2013,07,18,08,27,18.20
2013,07,18,08,28,18.20
2013,07,18,08,29,18.30
2013,07,18,08,30,18.30
2013,07,18,08,31,18.30
2013,07,18,08,32,18.30
2013,07,18,08,33,18.30
2013,07,18,08,34,18.30
2013,07,18,08,35,18.30
2013,07,18,08,36,18.40
2013,07,18,08,37,18.50
2013,07,18,08,38,18.50
2013,07,18,08,39,18.60
2013,07,18,08,40,18.70
2013,07,18,08,41,18.70
2013,07,18,08,42,18.80
2013,07,18,08,43,18.80
2013,07,18,08,44,18.80
2013,07,18,08,45,18.70
2013,07,18,08,46,18.60
2013,07,18,08,47,18.50
2013,07,18,08,48,18.50
2013,07,18,08,49,18.50
2013,07,18,08,50,18.50
2013,07,18,08,51,18.50
2013,07,18,08,52,18.40
2013,07,18,08,53,18.40
2013,07,18,08,54,18.40
2013,07,18,08,55,18.30
2013,07,18,08,56,18.20
2013,07,18,08,57,18.20
2013,07,18,08,58,18.20
2013,07,18,08,59,18.20
2013,07,18,09,00,18.20
2013,07,18,09,01,18.10
2013,07,18,09,02,18.10
2013,07,18,09,03,18.10
2013,07,18,09,04,18.10
2013,07,18,09,05,18.10
2013,07,18,09,06,18.20
2013,07,18,09,07,18.20
2013,07,18,09,08,18.20
2013,07,18,09,09,18.20
2013,07,18,09,10,18.20
2013,07,18,09,11,18.20
2013,07,18,09,12,18.20
2013,07,18,09,13,18.20
2013,07,18,09,14,18.20
2013,07,18,09,15,18.20
2013,07,18,09,16,18.20
2013,07,18,09,17,18.30
2013,07,18,09,18,18.30
2013,07,18,09,19,18.40
2013,07,18,09,20,18.40
2013,07,18,09,21,18.50
2013,07,18,09,22,18.50
2013,07,18,09,23,18.50
2013,07,18,09,24,18.50
2013,07,18,09,25,18.60
2013,07,18,09,26,18.60
2013,07,18,09,27,18.70
2013,07,18,09,28,18.80
2013,07,18,09,29,18.80
2013,07,18,09,30,18.90
2013,07,18,09,31,18.90
2013,07,18,09,32,18.90
2013,07,18,09,33,18.90
2013,07,18,09,34,19.00
2013,07,18,09,35,19.00
2013,07,18,09,36,19.10
2013,07,18,09,37,19.10
2013,07,18,09,38,19.20
2013,07,18,09,39,19.30
2013,07,18,09,40,19.30
2013,07,18,09,41,19.40
2013,07,18,09,42,19.50
2013,07,18,09,43,19.50
2013,07,18,09,44,19.60
2013,07,18,09,45,19.70
2013,07,18,09,46,19.80
2013,07,18,09,47,19.90
2013,07,18,09,48,20.00
2013,07,18,09,49,20.10
2013,07,18,09,50,20.00
2013,07,18,09,51,19.80
2013,07,18,09,52,19.70
2013,07,18,09,53,19.60
2013,07,18,09,54,19.50
2013,07,18,09,55,19.40
2013,07,18,09,56,19.40
2013,07,18,09,57,19.40
2013,07,18,09,58,19.40
2013,07,18,09,59,19.20
2013,07,18,10,00,19.00
2013,07,18,10,01,18.80
2013,07,18,10,02,18.70
2013,07,18,10,03,18.50
2013,07,18,10,04,18.40
2013,07,18,10,05,18.40
2013,07,18,10,06,18.30
2013,07,18,10,07,18.40
2013,07,18,10,08,18.40
2013,07,18,10,09,18.40
2013,07,18,10,10,18.40
2013,07,18,10,11,18.40
2013,07,18,10,12,18.40
2013,07,18,10,13,18.40
2013,07,18,10,14,18.50
2013,07,18,10,15,18.50
2013,07,18,10,16,18.50
2013,07,18,10,17,18.40
2013,07,18,10,18,18.40
2013,07,18,10,19,18.40
2013,07,18,10,20,18.40
2013,07,18,10,21,18.50
2013,07,18,10,22,18.40
2013,07,18,10,23,18.30
2013,07,18,10,24,18.30
2013,07,18,10,25,18.30
2013,07,18,10,26,18.30
2013,07,18,10,27,18.30
2013,07,18,10,28,18.30
2013,07,18,10,29,18.40
2013,07,18,10,30,18.40
2013,07,18,10,31,18.50
2013,07,18,10,32,18.60
2013,07,18,10,33,18.60
2013,07,18,10,34,18.50
2013,07,18,10,35,18.50
2013,07,18,10,36,18.50
2013,07,18,10,37,18.50
2013,07,18,10,38,18.60
2013,07,18,10,39,18.70
2013,07,18,10,40,18.80
2013,07,18,10,41,18.90
2013,07,18,10,42,19.00
2013,07,18,10,43,18.90
2013,07,18,10,44,18.80
2013,07,18,10,45,18.80
2013,07,18,10,46,18.70
2013,07,18,10,47,18.70
2013,07,18,10,48,18.70
2013,07,18,10,49,18.80
2013,07,18,10,50,18.80
2013,07,18,10,51,18.90
2013,07,18,10,52,18.90
2013,07,18,10,53,18.90
2013,07,18,10,54,18.90
2013,07,18,10,55,18.90
2013,07,18,10,56,18.90
2013,07,18,10,57,19.00
2013,07,18,10,58,19.00
2013,07,18,10,59,19.00
2013,07,18,11,00,19.10
2013,07,18,11,01,19.20
2013,07,18,11,02,19.40
2013,07,18,11,03,19.50
2013,07,18,11,04,19.70
2013,07,18,11,05,19.80
2013,07,18,11,06,19.90
2013,07,18,11,07,19.90
2013,07,18,11,08,19.80
2013,07,18,11,09,19.70
2013,07,18,11,10,19.60
2013,07,18,11,11,19.60
2013,07,18,11,12,19.60
2013,07,18,11,13,19.60
2013,07,18,11,14,19.70
2013,07,18,11,15,19.80
2013,07,18,11,16,19.80
2013,07,18,11,17,19.80
2013,07,18,11,18,19.80
2013,07,18,11,19,19.80
2013,07,18,11,20,19.70
2013,07,18,11,21,19.70
2013,07,18,11,22,19.70
2013,07,18,11,23,19.70
2013,07,18,11,24,19.70
2013,07,18,11,25,19.80
2013,07,18,11,26,19.70
2013,07,18,11,27,19.70
2013,07,18,11,28,19.70
2013,07,18,11,29,19.80
2013,07,18,11,30,19.80
2013,07,18,11,31,19.80
2013,07,18,11,32,19.80
2013,07,18,11,33,19.70
2013,07,18,11,34,19.70
2013,07,18,11,35,19.80
2013,07,18,11,36,19.80
2013,07,18,11,37,19.80
2013,07,18,11,38,19.80
2013,07,18,11,39,19.90
2013,07,18,11,40,20.00
2013,07,18,11,41,20.10
2013,07,18,11,42,20.10
2013,07,18,11,43,20.20
2013,07,18,11,44,20.30
2013,07,18,11,45,20.30
2013,07,18,11,46,20.40
2013,07,18,11,47,20.40
2013,07,18,11,48,20.30
2013,07,18,11,49,20.40
2013,07,18,11,50,20.40
2013,07,18,11,51,20.40
2013,07,18,11,52,20.40
2013,07,18,11,53,20.30
2013,07,18,11,54,20.30
2013,07,18,11,55,20.40
2013,07,18,11,56,20.40
2013,07,18,11,57,20.50
2013,07,18,11,58,20.60
2013,07,18,11,59,20.60
2013,07,18,12,00,20.70
2013,07,18,12,01,20.80
2013,07,18,12,02,20.80
2013,07,18,12,03,20.80
2013,07,18,12,04,20.90
2013,07,18,12,05,21.00
2013,07,18,12,06,21.10
2013,07,18,12,07,21.10
2013,07,18,12,08,21.20
2013,07,18,12,09,21.30
2013,07,18,12,10,21.40
2013,07,18,12,11,21.60
2013,07,18,12,12,21.70
2013,07,18,12,13,21.80
2013,07,18,12,14,21.90
2013,07,18,12,15,21.90
2013,07,18,12,16,22.00
2013,07,18,12,17,22.00
2013,07,18,12,18,22.10
2013,07,18,12,19,22.20
2013,07,18,12,20,22.10
2013,07,18,12,21,22.10
2013,07,18,12,22,22.00
2013,07,18,12,23,22.00
2013,07,18,12,24,22.00
2013,07,18,12,25,22.10
2013,07,18,12,26,22.10
2013,07,18,12,27,22.00
2013,07,18,12,28,22.00
2013,07,18,12,29,22.00
2013,07,18,12,30,22.00
2013,07,18,12,31,22.00
2013,07,18,12,32,22.10
2013,07,18,12,33,22.10
2013,07,18,12,34,22.20
2013,07,18,12,35,22.20
2013,07,18,12,36,22.10
2013,07,18,12,37,22.10
2013,07,18,12,38,22.00
2013,07,18,12,39,21.90
2013,07,18,12,40,22.00
2013,07,18,12,41,22.10
2013,07,18,12,42,22.20
2013,07,18,12,43,22.30
2013,07,18,12,44,22.30
2013,07,18,12,45,22.20
2013,07,18,12,46,22.20
2013,07,18,12,47,22.10
2013,07,18,12,48,22.00
2013,07,18,12,49,22.00
2013,07,18,12,50,21.90
2013,07,18,12,51,21.80
2013,07,18,12,52,21.60
2013,07,18,12,53,21.60
2013,07,18,12,54,21.60
2013,07,18,12,55,21.70
2013,07,18,12,56,21.80
2013,07,18,12,57,21.70
2013,07,18,12,58,21.80
2013,07,18,12,59,21.80
2013,07,18,13,00,21.80
2013,07,18,13,01,21.70
2013,07,18,13,02,21.60
2013,07,18,13,03,21.60
2013,07,18,13,04,21.50
2013,07,18,13,05,21.40
2013,07,18,13,06,21.30
2013,07,18,13,07,21.30
2013,07,18,13,08,21.30
2013,07,18,13,09,21.30
2013,07,18,13,10,21.30
2013,07,18,13,11,21.20
2013,07,18,13,12,21.20
2013,07,18,13,13,21.20
2013,07,18,13,14,21.20
2013,07,18,13,15,21.30
2013,07,18,13,16,21.30
2013,07,18,13,17,21.40
2013,07,18,13,18,21.50
2013,07,18,13,19,21.60
2013,07,18,13,20,21.60
2013,07,18,13,21,21.70
2013,07,18,13,22,21.70
2013,07,18,13,23,21.80
2013,07,18,13,24,21.80
2013,07,18,13,25,21.80
2013,07,18,13,26,21.80
2013,07,18,13,27,21.80
2013,07,18,13,28,21.70
2013,07,18,13,29,21.70
2013,07,18,13,30,21.70
2013,07,18,13,31,21.80
2013,07,18,13,32,21.80
2013,07,18,13,33,21.90
2013,07,18,13,34,21.90
2013,07,18,13,35,21.80
2013,07,18,13,36,21.70
2013,07,18,13,37,21.70
2013,07,18,13,38,21.60
2013,07,18,13,39,21.50
2013,07,18,13,40,21.40
2013,07,18,13,41,21.20
2013,07,18,13,42,21.10
2013,07,18,13,43,21.00
2013,07,18,13,44,21.00
2013,07,18,13,45,21.10
2013,07,18,13,46,21.10
2013,07,18,13,47,21.20
2013,07,18,13,48,21.20
2013,07,18,13,49,21.30
2013,07,18,13,50,21.30
2013,07,18,13,51,21.30
2013,07,18,13,52,21.20
2013,07,18,13,53,21.30
2013,07,18,13,54,21.40
2013,07,18,13,55,21.40
2013,07,18,13,56,21.40
2013,07,18,13,57,21.40
2013,07,18,13,58,21.50
2013,07,18,13,59,21.50
2013,07,18,14,00,21.50
2013,07,18,14,01,21.50
2013,07,18,14,02,21.40
2013,07,18,14,03,21.30
2013,07,18,14,04,21.20
2013,07,18,14,05,21.20
2013,07,18,14,06,21.20
2013,07,18,14,07,21.20
2013,07,18,14,08,21.20
2013,07,18,14,09,21.30
2013,07,18,14,10,21.30
2013,07,18,14,11,21.30
2013,07,18,14,12,21.40
2013,07,18,14,13,21.50
2013,07,18,14,14,21.50
2013,07,18,14,15,21.50
2013,07,18,14,16,21.60
2013,07,18,14,17,21.70
2013,07,18,14,18,21.70
2013,07,18,14,19,21.70
2013,07,18,14,20,21.70
2013,07,18,14,21,21.80
2013,07,18,14,22,21.80
2013,07,18,14,23,21.70
2013,07,18,14,24,21.70
2013,07,18,14,25,21.60
2013,07,18,14,26,21.70
2013,07,18,14,27,21.70
2013,07,18,14,28,21.80
2013,07,18,14,29,21.80
2013,07,18,14,30,21.80
2013,07,18,14,31,21.80
2013,07,18,14,32,21.80
2013,07,18,14,33,21.80
2013,07,18,14,34,21.80
2013,07,18,14,35,21.80
2013,07,18,14,36,21.80
2013,07,18,14,37,21.80
2013,07,18,14,38,21.80
2013,07,18,14,39,21.80
2013,07,18,14,40,21.80
2013,07,18,14,41,21.80
2013,07,18,14,42,21.90
2013,07,18,14,43,21.90
2013,07,18,14,44,21.90
2013,07,18,14,45,21.90
2013,07,18,14,46,21.80
2013,07,18,14,47,21.80
2013,07,18,14,48,21.80
2013,07,18,14,49,21.80
2013,07,18,14,50,21.80
2013,07,18,14,51,21.80
2013,07,18,14,52,21.90
2013,07,18,14,53,22.00
2013,07,18,14,54,22.20
2013,07,18,14,55,22.30
2013,07,18,14,56,22.30
2013,07,18,14,57,22.40
2013,07,18,14,58,22.30
2013,07,18,14,59,22.30
2013,07,18,15,00,22.20
2013,07,18,15,01,22.00
2013,07,18,15,02,22.00
2013,07,18,15,03,21.90
2013,07,18,15,04,22.00
2013,07,18,15,05,22.00
2013,07,18,15,06,22.10
2013,07,18,15,07,22.20
2013,07,18,15,08,22.20
2013,07,18,15,09,22.30
2013,07,18,15,10,22.30
2013,07,18,15,11,22.30
2013,07,18,15,12,22.30
2013,07,18,15,13,22.30
2013,07,18,15,14,22.30
2013,07,18,15,15,22.30
2013,07,18,15,16,22.30
2013,07,18,15,17,22.30
2013,07,18,15,18,22.30
2013,07,18,15,19,22.30
2013,07,18,15,20,22.30
2013,07,18,15,21,22.30
2013,07,18,15,22,22.30
2013,07,18,15,23,22.20
2013,07,18,15,24,22.20
2013,07,18,15,25,22.20
2013,07,18,15,26,22.20
2013,07,18,15,27,22.30
2013,07,18,15,28,22.40
2013,07,18,15,29,22.40
2013,07,18,15,30,22.40
2013,07,18,15,31,22.40
2013,07,18,15,32,22.40
2013,07,18,15,33,22.30
2013,07,18,15,34,22.30
2013,07,18,15,35,22.30
2013,07,18,15,36,22.30
2013,07,18,15,37,22.30
2013,07,18,15,38,22.30
2013,07,18,15,39,22.30
2013,07,18,15,40,22.20
2013,07,18,15,41,22.20
2013,07,18,15,42,22.20
2013,07,18,15,43,22.20
2013,07,18,15,44,22.30
2013,07,18,15,45,22.30
2013,07,18,15,46,22.30
2013,07,18,15,47,22.30
2013,07,18,15,48,22.30
2013,07,18,15,49,22.30
2013,07,18,15,50,22.30
2013,07,18,15,51,22.30
2013,07,18,15,52,22.30
2013,07,18,15,53,22.30
2013,07,18,15,54,22.30
2013,07,18,15,55,22.30
2013,07,18,15,56,22.30
2013,07,18,15,57,22.30
2013,07,18,15,58,22.20
2013,07,18,15,59,22.20
2013,07,18,16,00,22.20
2013,07,18,16,01,22.30
2013,07,18,16,02,22.40
2013,07,18,16,03,22.30
2013,07,18,16,04,22.30
2013,07,18,16,05,22.10
2013,07,18,16,06,22.00
2013,07,18,16,07,22.00
2013,07,18,16,08,22.00
2013,07,18,16,09,22.00
2013,07,18,16,10,22.00
2013,07,18,16,11,22.00
2013,07,18,16,12,22.10
2013,07,18,16,13,22.10
2013,07,18,16,14,22.10
2013,07,18,16,15,22.10
2013,07,18,16,16,22.20
2013,07,18,16,17,22.20
2013,07,18,16,18,22.10
2013,07,18,16,19,22.10
2013,07,18,16,20,22.10
2013,07,18,16,21,22.10
2013,07,18,16,22,22.10
2013,07,18,16,23,22.00
2013,07,18,16,24,22.10
2013,07,18,16,25,22.00
2013,07,18,16,26,22.00
2013,07,18,16,27,22.10
2013,07,18,16,28,22.10
2013,07,18,16,29,22.10
2013,07,18,16,30,22.10
2013,07,18,16,31,22.10
2013,07,18,16,32,22.10
2013,07,18,16,33,22.10
2013,07,18,16,34,22.10
2013,07,18,16,35,22.10
2013,07,18,16,36,22.10
2013,07,18,16,37,22.00
2013,07,18,16,38,22.00
2013,07,18,16,39,22.00
2013,07,18,16,40,21.90
2013,07,18,16,41,21.90
2013,07,18,16,42,22.00
2013,07,18,16,43,22.00
2013,07,18,16,44,22.10
2013,07,18,16,45,22.10
2013,07,18,16,46,22.10
2013,07,18,16,47,22.10
2013,07,18,16,48,22.10
2013,07,18,16,49,22.10
2013,07,18,16,50,22.10
2013,07,18,16,51,22.10
2013,07,18,16,52,22.10
2013,07,18,16,53,22.10
2013,07,18,16,54,22.20
2013,07,18,16,55,22.20
2013,07,18,16,56,22.30
2013,07,18,16,57,22.30
2013,07,18,16,58,22.40
2013,07,18,16,59,22.50
2013,07,18,17,00,22.60
2013,07,18,17,01,22.60
2013,07,18,17,02,22.70
2013,07,18,17,03,22.70
2013,07,18,17,04,22.70
2013,07,18,17,05,22.70
2013,07,18,17,06,22.70
2013,07,18,17,07,22.60
2013,07,18,17,08,22.60
2013,07,18,17,09,22.50
2013,07,18,17,10,22.50
2013,07,18,17,11,22.50
2013,07,18,17,12,22.50
2013,07,18,17,13,22.60
2013,07,18,17,14,22.60
2013,07,18,17,15,22.60
2013,07,18,17,16,22.60
2013,07,18,17,17,22.50
2013,07,18,17,18,22.50
2013,07,18,17,19,22.50